Weather History for Point Lay, AK

Change the Weather History Date:

Monday, October 31, 2011

  Actual Average Record
Temperature  
Mean Temperature 22 °F -  
Max Temperature 26 °F 15 °F 87 °F (2002)
Min Temperature 17 °F 7 °F -14 °F (2005)
Degree Days  
Heating Degree Days 44    
Moisture  
Dew Point 17 °F    
Average Humidity 83    
Maximum Humidity 93    
Minimum Humidity 63    
Precipitation  
Precipitation 0.00 in - - ()
Sea Level Pressure  
Sea Level Pressure 29.71 in    
Wind  
Wind Speed 13 mph (WNW)    
Max Wind Speed 23 mph    
Max Gust Speed 26 mph    
Visibility 6 miles    
Events Fog , Snow    
Averages and records for this station are not official NWS values.
T = Trace of Precipitation, MM = Missing Value Source: NWS Daily Summary

Daily Weather History Graph

Daily Weather History Graph

Search for Another Location

Airport:

Trip Planner

Search our weather history database for the weather conditions in past years. The results will help you decide how hot, cold, wet, or windy it might be!

Date:

Astronomy

Oct. 31, 2011 Rise Set
Actual Time 11:15 AM AKDT 5:54 PM AKDT
Civil Twilight 10:03 AM AKDT 7:06 PM AKDT
Nautical Twilight 8:50 AM AKDT 8:19 PM AKDT
Astronomical Twilight 7:40 AM AKDT 9:28 PM AKDT
Moon 6:23 PM AKDT (10/31) 8:59 PM AKDT (10/31)
Length of Visible Light 9h 03m
Length of Day
6h 39m
Waxing Crescent, 31% of the Moon is Illuminated
Oct 31
Waxing Crescent
Nov 2
First Quarter
Nov 10
Full
Nov 18
Last Quarter
Nov 24
New

Hourly Weather History & Observations

Time (AKDT) Temp. Windchill Dew Point Humidity Pressure Visibility Wind Dir Wind Speed Gust Speed Precip Events Conditions
12:11 AM 24.8 °F 14.0 °F 21.2 °F 86% 29.60 in 6.0 mi West 11.5 mph - 0.00 in Snow Light Snow
12:25 AM 26.6 °F 16.2 °F 21.2 °F 80% 29.60 in 10.0 mi West 11.5 mph - 0.00 in   Scattered Clouds
12:56 AM 24.1 °F 13.7 °F 19.0 °F 81% 29.62 in 10.0 mi West 10.4 mph - 0.00 in   Partly Cloudy
1:14 AM 24.8 °F 13.4 °F 21.2 °F 86% 29.60 in 10.0 mi West 12.7 mph - N/A   Scattered Clouds
1:23 AM 24.8 °F 12.9 °F 19.4 °F 80% 29.61 in 10.0 mi WNW 13.8 mph 24.2 mph 0.00 in Snow Light Snow
1:37 AM 24.8 °F 12.9 °F 19.4 °F 80% 29.61 in 10.0 mi West 13.8 mph - 0.00 in   Scattered Clouds
1:49 AM 24.8 °F 9.6 °F 21.2 °F 86% 29.61 in 1.8 mi WNW 23.0 mph 26.5 mph 0.00 in Snow Light Snow
1:56 AM 24.1 °F 10.6 °F 21.0 °F 88% 29.62 in 0.8 mi WNW 17.3 mph - 0.00 in Snow Light Snow
1:59 AM 24.8 °F 11.5 °F 21.2 °F 86% 29.61 in 1.2 mi West 17.3 mph - 0.00 in Snow Light Snow
2:01 AM 24.8 °F 11.5 °F 19.4 °F 80% 29.61 in 2.0 mi West 17.3 mph - 0.00 in Snow Light Snow
2:08 AM 24.8 °F 12.9 °F 19.4 °F 80% 29.61 in 10.0 mi West 13.8 mph - 0.00 in   Mostly Cloudy
2:22 AM 24.8 °F 11.1 °F 19.4 °F 80% 29.61 in 2.5 mi WNW 18.4 mph 26.5 mph 0.00 in Snow Light Snow
2:25 AM 24.8 °F 12.4 °F 21.2 °F 86% 29.61 in 1.2 mi West 15.0 mph 26.5 mph 0.00 in Snow Light Snow
2:34 AM 24.8 °F 14.6 °F 21.2 °F 86% 29.61 in 2.0 mi West 10.4 mph - 0.00 in Snow Light Snow
2:36 AM 24.8 °F 15.3 °F 21.2 °F 86% 29.61 in 4.0 mi West 9.2 mph - 0.00 in Snow Light Snow
2:56 AM 24.1 °F 13.7 °F 20.1 °F 85% 29.62 in 10.0 mi West 10.4 mph - 0.00 in   Partly Cloudy
3:56 AM 24.8 °F 15.3 °F 19.4 °F 80% 29.62 in 9.0 mi NW 9.2 mph - N/A Snow Light Snow
4:13 AM 24.8 °F 11.1 °F 21.2 °F 86% 29.62 in 3.0 mi West 18.4 mph - 0.00 in Snow Light Snow
4:23 AM 24.8 °F 10.3 °F 21.2 °F 86% 29.62 in 1.8 mi West 20.7 mph - 0.00 in Snow Light Snow
4:29 AM 24.8 °F 11.1 °F 21.2 °F 86% 29.62 in 1.0 mi West 18.4 mph - 0.00 in Snow Light Snow
4:33 AM 24.8 °F 11.5 °F 21.2 °F 86% 29.62 in 1.5 mi West 17.3 mph - 0.00 in Snow Light Snow
4:39 AM 24.8 °F 12.4 °F 21.2 °F 86% 29.62 in 3.0 mi WNW 15.0 mph - 0.00 in Snow Light Snow
4:56 AM 24.1 °F 11.0 °F 20.1 °F 85% 29.63 in 10.0 mi NW 16.1 mph - 0.00 in   Mostly Cloudy
5:56 AM 24.1 °F 15.2 °F 19.0 °F 81% 29.65 in 10.0 mi NNW 8.1 mph - 0.00 in   Scattered Clouds
7:30 AM 23.0 °F 11.1 °F 17.6 °F 80% 29.66 in 10.0 mi NW 12.7 mph - N/A   Mostly Cloudy
7:56 AM 25.2 °F 11.6 °F 14.0 °F 63% 29.68 in 10.0 mi NW 18.4 mph - 0.00 in   Overcast
8:24 AM 23.0 °F 9.2 °F 17.6 °F 80% 29.68 in 1.8 mi NW 17.3 mph - 0.00 in Snow Light Snow
8:31 AM 23.0 °F 11.7 °F 17.6 °F 80% 29.68 in 2.0 mi NW 11.5 mph - 0.00 in Snow Light Snow
8:41 AM 23.0 °F 13.1 °F 17.6 °F 80% 29.68 in 7.0 mi NW 9.2 mph - 0.00 in Snow Light Snow
8:56 AM 24.1 °F 9.8 °F 13.1 °F 63% 29.68 in 10.0 mi WNW 19.6 mph 23.0 mph 0.00 in   Mostly Cloudy
9:56 AM 23.0 °F 10.6 °F 14.0 °F 68% 29.69 in 9.0 mi NW 13.8 mph - N/A Snow Light Snow
10:42 AM 23.0 °F 13.1 °F 15.8 °F 74% 29.70 in 2.5 mi NW 9.2 mph - 0.00 in Snow Light Snow
10:56 AM 22.1 °F 12.0 °F 15.1 °F 74% 29.71 in 10.0 mi NW 9.2 mph - 0.00 in   Mostly Cloudy
11:56 AM 22.1 °F 10.0 °F 12.0 °F 65% 29.73 in 10.0 mi NW 12.7 mph - 0.00 in   Overcast
12:16 PM 21.2 °F 7.8 °F 12.2 °F 68% 29.73 in 2.5 mi WNW 15.0 mph 24.2 mph 0.00 in Snow Light Snow
12:21 PM 21.2 °F 6.8 °F 15.8 °F 80% 29.73 in - WNW 17.3 mph 24.2 mph 0.00 in Snow Light Snow
12:29 PM 21.2 °F 6.4 °F 17.6 °F 86% 29.73 in 0.2 mi NW 18.4 mph - 0.00 in Fog , Snow Heavy Snow
12:42 PM 19.4 °F 8.6 °F 17.6 °F 93% 29.73 in 0.8 mi NNW 9.2 mph - 0.00 in Snow Light Snow
12:45 PM 19.4 °F 9.5 °F 15.8 °F 86% 29.73 in 1.8 mi NNW 8.1 mph - 0.00 in Snow Light Snow
12:56 PM 19.4 °F 10.4 °F 17.6 °F 93% 29.73 in 8.0 mi NW 6.9 mph - N/A   Mostly Cloudy
1:56 PM 21.0 °F 9.3 °F 16.2 °F 81% 29.75 in 10.0 mi NW 11.5 mph - 0.00 in Snow Light Snow
2:56 PM 21.0 °F 9.9 °F 15.1 °F 78% 29.77 in 10.0 mi NNW 10.4 mph - 0.00 in Snow Light Snow
3:05 PM 21.2 °F 10.9 °F 15.8 °F 80% 29.76 in 5.0 mi NNW 9.2 mph - 0.00 in Snow Light Snow
3:16 PM 19.4 °F 7.2 °F 15.8 °F 86% 29.75 in 4.0 mi NNW 11.5 mph - 0.00 in Snow Light Snow
3:29 PM 19.4 °F 9.5 °F 15.8 °F 86% 29.75 in 10.0 mi NNW 8.1 mph - 0.00 in   Mostly Cloudy
3:56 PM 20.1 °F 10.3 °F 14.0 °F 77% 29.78 in 10.0 mi NW 8.1 mph - 0.00 in   Mostly Cloudy
4:56 PM 20.1 °F 8.8 °F 15.1 °F 81% 29.78 in 1.2 mi West 10.4 mph - 0.00 in Snow Light Snow
4:59 PM 19.4 °F 7.9 °F 15.8 °F 86% 29.77 in 0.8 mi West 10.4 mph - 0.00 in Snow Light Snow
5:05 PM 19.4 °F 8.6 °F 15.8 °F 86% 29.77 in 0.5 mi West 9.2 mph - 0.00 in Fog , Snow Snow
5:16 PM 19.4 °F 10.4 °F 15.8 °F 86% 29.77 in 1.0 mi West 6.9 mph - 0.00 in Snow Light Snow
5:19 PM 19.4 °F 10.4 °F 15.8 °F 86% 29.77 in 1.8 mi West 6.9 mph - 0.00 in Snow Light Snow
5:21 PM 19.4 °F 10.4 °F 15.8 °F 86% 29.77 in 3.0 mi West 6.9 mph - 0.00 in Snow Light Snow
5:31 PM 19.4 °F 10.4 °F 15.8 °F 86% 29.78 in 10.0 mi West 6.9 mph - 0.00 in Snow Light Snow
5:56 PM 19.0 °F 10.0 °F 15.1 °F 85% 29.79 in 10.0 mi West 6.9 mph - 0.00 in   Mostly Cloudy
6:56 PM 17.6 °F 6.4 °F 12.2 °F 79% 29.78 in 10.0 mi WSW 9.2 mph - N/A   Scattered Clouds
7:25 PM 19.4 °F 6.6 °F 15.8 °F 86% 29.78 in 7.0 mi WSW 12.7 mph - 0.00 in Snow Light Snow
7:56 PM 18.1 °F 8.9 °F 15.1 °F 88% 29.80 in 10.0 mi WSW 6.9 mph - 0.00 in   Mostly Cloudy
8:20 PM 19.4 °F 7.2 °F 15.8 °F 86% 29.79 in 10.0 mi NW 11.5 mph - N/A   Overcast
8:28 PM 19.4 °F 7.9 °F 15.8 °F 86% 29.79 in 2.5 mi NW 10.4 mph - 0.00 in Snow Light Snow
8:38 PM 19.4 °F 11.5 °F 15.8 °F 86% 29.79 in 6.0 mi NW 5.8 mph - 0.00 in Snow Light Snow
8:47 PM 19.4 °F 14.3 °F 15.8 °F 86% 29.79 in 10.0 mi WNW 3.5 mph - 0.00 in Snow Light Snow
8:56 PM 19.0 °F - 15.1 °F 85% 29.80 in 10.0 mi Calm Calm - 0.00 in   Scattered Clouds
9:48 PM 17.6 °F 9.3 °F 15.8 °F 93% 29.79 in 5.0 mi SSW 5.8 mph - 0.00 in Snow Light Snow
9:56 PM 19.4 °F 3.2 °F 17.6 °F 93% 29.79 in 4.0 mi WNW 20.7 mph 24.2 mph N/A Snow Light Snow
10:04 PM 19.4 °F 5.0 °F 17.6 °F 93% 29.79 in 2.5 mi WNW 16.1 mph - 0.00 in Snow Light Snow
10:07 PM 19.4 °F 6.0 °F 17.6 °F 93% 29.79 in 3.0 mi WNW 13.8 mph - 0.00 in Snow Light Snow
10:14 PM 19.4 °F 6.6 °F 15.8 °F 86% 29.79 in 5.0 mi WNW 12.7 mph - 0.00 in Snow Light Snow
10:24 PM 21.2 °F 8.9 °F 15.8 °F 80% 29.79 in 10.0 mi West 12.7 mph - 0.00 in   Mostly Cloudy
10:32 PM 21.2 °F 6.4 °F 15.8 °F 80% 29.79 in 2.0 mi WNW 18.4 mph - 0.00 in Snow Light Snow
10:37 PM 21.2 °F 7.3 °F 15.8 °F 80% 29.79 in 1.5 mi WNW 16.1 mph - 0.00 in Snow Light Snow
10:40 PM 21.2 °F 8.9 °F 17.6 °F 86% 29.79 in 1.0 mi WNW 12.7 mph - 0.00 in Snow Light Snow
10:56 PM 21.0 °F 9.9 °F 17.1 °F 85% 29.80 in 2.5 mi West 10.4 mph - 0.00 in Snow Light Snow
11:00 PM 21.2 °F 10.1 °F 17.6 °F 86% 29.79 in 5.0 mi West 10.4 mph - 0.00 in Snow Light Snow
11:34 PM 21.2 °F 6.4 °F 15.8 °F 80% 29.78 in 8.0 mi West 18.4 mph - 0.00 in Snow Light Snow
11:41 PM 21.2 °F 6.0 °F 17.6 °F 86% 29.78 in 2.5 mi West 19.6 mph - 0.00 in Snow Light Snow
11:47 PM 21.2 °F 7.8 °F 17.6 °F 86% 29.78 in 3.0 mi West 15.0 mph - 0.00 in Snow Light Snow
11:56 PM 21.0 °F 8.6 °F 18.1 °F 89% 29.79 in 10.0 mi West 12.7 mph - 0.00 in Snow Light Snow